This is the latest recevied weather packets stored in our database for station/object N3MFL. If no packets are shown the sender has not sent any weather packets the latest 10 day(s).
| Time | Temp. | Humidity | Pressure | Rain* | Wind** | Luminosity | Snow |
|---|---|---|---|---|---|---|---|
| 1777915647 | 20° C | 35% | 1009.8 hPa | 0 mm | - | 407 W/m² | - |
| 1777915343 | 20° C | 32% | 1009.9 hPa | 0 mm | - | 187 W/m² | - |
| 1777915040 | 20° C | 31% | 1009.8 hPa | 0 mm | - | 189 W/m² | - |
| 1777914737 | 20° C | 33% | 1010.2 hPa | 0 mm | - | 237 W/m² | - |
| 1777914433 | 20° C | 31% | 1010.2 hPa | 0 mm | - | 266 W/m² | - |
| 1777914131 | 19.44° C | 31% | 1010.3 hPa | 0 mm | - | 482 W/m² | - |
| 1777913827 | 20° C | 31% | 1010.2 hPa | 0 mm | - | 204 W/m² | - |
| 1777913220 | 20° C | 32% | 1010.6 hPa | 0 mm | - | 164 W/m² | - |
| 1777912916 | 20° C | 33% | 1010.5 hPa | 0 mm | - | 453 W/m² | - |
| 1777912613 | 20.56° C | 31% | 1010.5 hPa | 0 mm | - | 215 W/m² | - |
| 1777912309 | 20.56° C | 34% | 1010.4 hPa | 0 mm | - | 232 W/m² | - |
| 1777912005 | 20° C | 32% | 1010.5 hPa | 0 mm | - | 573 W/m² | - |
| 1777911398 | 19.44° C | 32% | 1010.8 hPa | 0 mm | - | 690 W/m² | - |
| 1777911096 | 20° C | 33% | 1011 hPa | 0 mm | - | 723 W/m² | - |
| 1777908674 | 18.89° C | 36% | 1011.2 hPa | 0 mm | - | 689 W/m² | - |
| 1777907762 | 18.89° C | 34% | 1011.3 hPa | 0 mm | - | 673 W/m² | - |
| 1777905941 | 18.33° C | 37% | 1011.6 hPa | 0 mm | - | 624 W/m² | - |
| 1777905335 | 17.78° C | 35% | 1011.8 hPa | 0 mm | - | 607 W/m² | - |
| 1777901699 | 17.22° C | 38% | 1012 hPa | 0 mm | - | 469 W/m² | - |
| 1777901396 | 17.22° C | 39% | 1012.3 hPa | 0 mm | - | 457 W/m² | - |
| 1777901093 | 17.22° C | 40% | 1012.2 hPa | 0 mm | - | 449 W/m² | - |
| 1777900790 | 16.11° C | 39% | 1012.2 hPa | 0 mm | - | 440 W/m² | - |
| 1777900488 | 16.11° C | 39% | 1012.3 hPa | 0 mm | - | 422 W/m² | - |
| 1777899881 | 16.11° C | 39% | 1012.6 hPa | 0 mm | - | 400 W/m² | - |
| 1777899578 | 16.11° C | 40% | 1012.5 hPa | 0 mm | - | 381 W/m² | - |
* Rain latest hour (hover to see other rain measurements)
** Current wind speed in m/s (hover to see current wind gust speed)